LGR888 SARI-SBFI

Flight info

Callsign LGR888
Flight time 0h -16m
Altitude 2500
Route IGU
Aircraft R66/L-SFG/C

Departure

Time 2026-04-29 19:19
Airport Cataratas Del Iguazú International Airport (SARI)

Arrival

Time 2026-04-29 19:03
Airport Cataratas International Airport (SBFI)
Time Latitude Longitude Altitude Speed Heading
2026-04-29 19:03 -25.73020 -54.48106 886 ft 0 kts 108°
2026-04-29 19:17 -25.73021 -54.48089 911 ft 10 kts 128°
2026-04-29 19:18 -25.73043 -54.48057 954 ft 4 kts 177°
2026-04-29 19:18 -25.73073 -54.48045 974 ft 6 kts 182°
2026-04-29 19:18 -25.73149 -54.47984 1018 ft 16 kts 165°
2026-04-29 19:18 -25.73256 -54.47995 1114 ft 24 kts 226°
2026-04-29 19:19 -25.73322 -54.48300 1243 ft 58 kts 283°
2026-04-29 19:19 -25.73117 -54.48771 1424 ft 73 kts 295°
2026-04-29 19:19 -25.72870 -54.49353 1494 ft 88 kts 293°
2026-04-29 19:19 -25.72600 -54.50003 1551 ft 97 kts 291°
2026-04-29 19:20 -25.72311 -54.50702 1599 ft 101 kts 291°
2026-04-29 19:20 -25.72015 -54.51416 1654 ft 103 kts 291°
2026-04-29 19:20 -25.71715 -54.52140 1711 ft 104 kts 290°
2026-04-29 19:20 -25.71410 -54.52873 1760 ft 104 kts 290°
2026-04-29 19:21 -25.71108 -54.53601 1798 ft 105 kts 290°
2026-04-29 19:21 -25.70799 -54.54343 1845 ft 106 kts 290°
2026-04-29 19:21 -25.70490 -54.55084 1884 ft 106 kts 290°
2026-04-29 19:21 -25.70179 -54.55830 1921 ft 106 kts 290°
2026-04-29 19:22 -25.69869 -54.56575 1949 ft 106 kts 290°
2026-04-29 19:22 -25.69559 -54.57317 1979 ft 105 kts 290°
2026-04-29 19:22 -25.69251 -54.58055 2006 ft 105 kts 291°
2026-04-29 19:22 -25.68942 -54.58796 1988 ft 109 kts 290°
2026-04-29 19:23 -25.68620 -54.59567 1935 ft 112 kts 290°
2026-04-29 19:23 -25.68288 -54.60363 1880 ft 113 kts 290°
2026-04-29 19:23 -25.67960 -54.61148 1824 ft 113 kts 290°
2026-04-29 19:23 -25.67629 -54.61939 1771 ft 113 kts 290°
2026-04-29 19:24 -25.67292 -54.62745 1716 ft 114 kts 290°
2026-04-29 19:24 -25.66956 -54.63547 1662 ft 115 kts 290°
2026-04-29 19:24 -25.66621 -54.64346 1613 ft 115 kts 290°
2026-04-29 19:24 -25.66209 -54.65125 1522 ft 120 kts 308°
2026-04-29 19:25 -25.65464 -54.65498 1488 ft 120 kts 349°
2026-04-29 19:25 -25.64639 -54.65439 1513 ft 117 kts
2026-04-29 19:25 -25.63816 -54.65342 1518 ft 117 kts
2026-04-29 19:25 -25.63003 -54.65247 1516 ft 117 kts
2026-04-29 19:26 -25.62187 -54.65154 1516 ft 117 kts
2026-04-29 19:26 -25.61379 -54.65062 1517 ft 116 kts
2026-04-29 19:26 -25.60567 -54.64969 1514 ft 116 kts
2026-04-29 19:26 -25.59759 -54.64877 1516 ft 116 kts
2026-04-29 19:27 -25.58949 -54.64785 1516 ft 116 kts
2026-04-29 19:27 -25.58142 -54.64693 1514 ft 116 kts
2026-04-29 19:27 -25.57333 -54.64601 1514 ft 117 kts
2026-04-29 19:27 -25.56518 -54.64508 1513 ft 117 kts
2026-04-29 19:28 -25.55707 -54.64417 1516 ft 117 kts
2026-04-29 19:28 -25.54899 -54.64324 1514 ft 117 kts
2026-04-29 19:28 -25.54083 -54.64231 1514 ft 116 kts
2026-04-29 19:28 -25.53274 -54.64139 1512 ft 116 kts
2026-04-29 19:29 -25.52475 -54.64048 1514 ft 116 kts
2026-04-29 19:29 -25.51668 -54.63957 1508 ft 113 kts
2026-04-29 19:29 -25.50899 -54.63871 1513 ft 111 kts
2026-04-29 19:29 -25.50120 -54.63783 1514 ft 112 kts
2026-04-29 19:30 -25.49337 -54.63694 1511 ft 113 kts
2026-04-29 19:30 -25.48553 -54.63605 1503 ft 113 kts
2026-04-29 19:30 -25.47789 -54.63426 1508 ft 114 kts 14°
2026-04-29 19:30 -25.47031 -54.63126 1512 ft 114 kts 16°
2026-04-29 19:31 -25.46278 -54.62817 1508 ft 114 kts 17°
2026-04-29 19:31 -25.45538 -54.62513 1511 ft 114 kts 17°
2026-04-29 19:31 -25.44790 -54.62203 1507 ft 114 kts 18°
2026-04-29 19:31 -25.44039 -54.61892 1513 ft 114 kts 18°
2026-04-29 19:32 -25.43284 -54.61578 1514 ft 115 kts 18°
2026-04-29 19:32 -25.42534 -54.61267 1513 ft 115 kts 17°
2026-04-29 19:32 -25.41779 -54.60953 1511 ft 115 kts 17°
2026-04-29 19:32 -25.41028 -54.60642 1512 ft 115 kts 17°
2026-04-29 19:33 -25.40279 -54.60316 1502 ft 117 kts 22°
2026-04-29 19:33 -25.39739 -54.59661 1485 ft 117 kts 63°
2026-04-29 19:33 -25.39683 -54.58781 1480 ft 115 kts 103°
2026-04-29 19:33 -25.40129 -54.58080 1482 ft 110 kts 144°
2026-04-29 19:34 -25.40802 -54.57708 1507 ft 108 kts 155°
2026-04-29 19:34 -25.41482 -54.57325 1516 ft 110 kts 153°
2026-04-29 19:34 -25.42159 -54.56910 1516 ft 111 kts 151°
2026-04-29 19:34 -25.42831 -54.56477 1516 ft 111 kts 150°
2026-04-29 19:35 -25.43502 -54.56033 1513 ft 111 kts 149°
2026-04-29 19:35 -25.44163 -54.55589 1511 ft 111 kts 149°
2026-04-29 19:35 -25.44831 -54.55136 1506 ft 111 kts 149°
2026-04-29 19:35 -25.45485 -54.54692 1507 ft 111 kts 149°
2026-04-29 19:36 -25.46152 -54.54238 1510 ft 111 kts 149°
2026-04-29 19:36 -25.46818 -54.53784 1509 ft 112 kts 149°
2026-04-29 19:36 -25.47477 -54.53334 1513 ft 112 kts 149°
2026-04-29 19:36 -25.48148 -54.52873 1513 ft 113 kts 148°
2026-04-29 19:37 -25.48798 -54.52387 1510 ft 111 kts 147°
2026-04-29 19:37 -25.49223 -54.52070 1513 ft 109 kts 147°
2026-04-29 19:37 -25.50065 -54.51447 1515 ft 107 kts 147°
2026-04-29 19:37 -25.50665 -54.50958 1517 ft 107 kts 143°
2026-04-29 19:38 -25.51250 -54.50452 1514 ft 107 kts 142°
2026-04-29 19:38 -25.51831 -54.49928 1515 ft 106 kts 140°
2026-04-29 19:38 -25.52398 -54.49395 1514 ft 106 kts 140°
2026-04-29 19:38 -25.52957 -54.48868 1506 ft 104 kts 140°
2026-04-29 19:39 -25.53507 -54.48354 1511 ft 101 kts 140°
2026-04-29 19:39 -25.54040 -54.47850 1513 ft 100 kts 140°
2026-04-29 19:39 -25.54571 -54.47346 1516 ft 100 kts 140°
2026-04-29 19:39 -25.55105 -54.46834 1515 ft 101 kts 140°
2026-04-29 19:40 -25.55629 -54.46328 1511 ft 101 kts 140°
2026-04-29 19:40 -25.56158 -54.45809 1513 ft 101 kts 140°
2026-04-29 19:40 -25.56689 -54.45287 1515 ft 101 kts 140°
2026-04-29 19:40 -25.57221 -54.44769 1520 ft 102 kts 140°
2026-04-29 19:41 -25.57763 -54.44249 1516 ft 103 kts 140°
2026-04-29 19:41 -25.58306 -54.43731 1517 ft 103 kts 140°
2026-04-29 19:41 -25.58847 -54.43217 1517 ft 102 kts 140°
2026-04-29 19:41 -25.59396 -54.42699 1518 ft 103 kts 140°
2026-04-29 19:42 -25.59937 -54.42189 1515 ft 102 kts 140°
2026-04-29 19:42 -25.60300 -54.41848 1516 ft 102 kts 140°
2026-04-29 19:42 -25.61140 -54.41393 1500 ft 98 kts 167°
2026-04-29 19:42 -25.61817 -54.41329 1509 ft 97 kts 183°
2026-04-29 19:43 -25.62487 -54.41353 1513 ft 97 kts 183°
2026-04-29 19:43 -25.63160 -54.41395 1514 ft 96 kts 185°
2026-04-29 19:43 -25.63831 -54.41452 1519 ft 97 kts 186°
2026-04-29 19:43 -25.64507 -54.41534 1511 ft 97 kts 188°
2026-04-29 19:44 -25.65164 -54.41695 1512 ft 96 kts 193°
2026-04-29 19:44 -25.65828 -54.41861 1512 ft 96 kts 193°
2026-04-29 19:44 -25.66471 -54.42027 1521 ft 94 kts 193°
2026-04-29 19:44 -25.67109 -54.42220 1510 ft 93 kts 200°
2026-04-29 19:45 -25.67703 -54.42475 1505 ft 90 kts 200°
2026-04-29 19:45 -25.68268 -54.42730 1513 ft 85 kts 200°
2026-04-29 19:45 -25.68801 -54.43009 1494 ft 83 kts 211°
2026-04-29 19:45 -25.69138 -54.43483 1488 ft 76 kts 246°
2026-04-29 19:46 -25.69125 -54.44049 1492 ft 74 kts 283°
2026-04-29 19:46 -25.68799 -54.44481 1486 ft 75 kts 319°
2026-04-29 19:46 -25.68292 -54.44608 1491 ft 75 kts 353°
2026-04-29 19:46 -25.67777 -54.44508 1502 ft 76 kts
2026-04-29 19:47 -25.67269 -54.44322 1518 ft 76 kts 10°
2026-04-29 19:47 -25.66758 -54.44128 1533 ft 80 kts 10°
2026-04-29 19:47 -25.66209 -54.43935 1521 ft 81 kts
2026-04-29 19:47 -25.65665 -54.43834 1527 ft 78 kts 352°
2026-04-29 19:48 -25.65115 -54.43859 1523 ft 78 kts 346°
2026-04-29 19:48 -25.64749 -54.43889 1518 ft 78 kts 346°
2026-04-29 19:48 -25.64034 -54.43978 1526 ft 75 kts 337°
2026-04-29 19:48 -25.63530 -54.44153 1518 ft 75 kts 326°
2026-04-29 19:49 -25.63040 -54.44427 1471 ft 80 kts 323°
2026-04-29 19:49 -25.62583 -54.44824 1363 ft 85 kts 307°
2026-04-29 19:49 -25.62233 -54.45326 1333 ft 79 kts 297°
2026-04-29 19:49 -25.61882 -54.45808 1296 ft 78 kts 300°
2026-04-29 19:50 -25.61493 -54.46265 1193 ft 83 kts 302°
2026-04-29 19:50 -25.61124 -54.46741 1139 ft 77 kts 300°
2026-04-29 19:50 -25.60805 -54.47150 1068 ft 60 kts 297°
2026-04-29 19:50 -25.60553 -54.47463 1011 ft 44 kts 294°
2026-04-29 19:51 -25.60379 -54.47688 918 ft 33 kts 294°
2026-04-29 19:51 -25.60245 -54.47865 867 ft 24 kts 301°
2026-04-29 19:51 -25.60160 -54.47990 833 ft 12 kts 317°
2026-04-29 19:51 -25.60031 -54.48148 867 ft 31 kts 301°
2026-04-29 19:52 -25.59916 -54.48304 838 ft 14 kts 303°
2026-04-29 19:52 -25.59818 -54.48425 815 ft 23 kts 293°
2026-04-29 19:52 -25.59823 -54.48589 813 ft 19 kts 336°
2026-04-29 19:52 -25.59738 -54.48706 794 ft 16 kts 335°
2026-04-29 19:53 -25.59664 -54.48801 790 ft 15 kts 330°
2026-04-29 19:53 -25.59620 -54.48868 777 ft 5 kts 332°
2026-04-29 19:53 -25.59557 -54.48919 791 ft 19 kts 320°
2026-04-29 19:53 -25.59483 -54.49017 790 ft 12 kts 259°
2026-04-29 19:54 -25.59499 -54.49034 807 ft 5 kts 201°
2026-04-29 19:54 -25.59534 -54.49034 772 ft 3 kts 228°
2026-04-29 19:54 -25.59547 -54.49045 763 ft 1 kts 238°
2026-04-29 19:55 -25.59548 -54.49046 758 ft 0 kts 230°